SCP
0 0 0 0 0 0 0 0 0 0 0 0 0 0 0 0 0 0 0 0 0 0 0 0 0 0 0 0 0 0 0 0 0 0 0 0 0 0 0 0 0 0 0
0 0 0 0 0 0 0 0 0 0 0 0 0 0 0 0 0 0 0 0 0 0 0 0 0 0 0 0 0 0 0 0 0 0 0 0 0 0 0 0 0 0 0
0 0 0 0 0 0 0 0 0 0 0 0 0 0 0 0 0 0 0 0 0 0 0 0 0 0 0 0 0 0 0 0 0 0 0 0 0 0 0 0 0 0 0
0 0 0 0 0 0 0 0 0 0 0 0 0 0 0 0 0 0 0 0 0 0 0 0 0 0 0 0 0 0 0 0 0 0 0 0 0 0 0 0 0 0 0
0 0 0 0 0 0 0 0 0 0 0 0 0 0 0 0 0 0 0 0 0 0 0 0 0 0 0 0 0 0 0 0 0 0 0 0 0 0 0 0 0 0 0
0 0 0 0 0 0 0 0 0 0 0 0 0 0 0 0 0 0 0 0 0 0 0 0 0 0 0 0 0 0 0 0 0 0 0 0 0 0 0 0 0 0 0
0 0 0 0 0 0 0 0 0 0 0 0 0 0 0 0 0 0 0 0 0 0 0 0 0 0 0 0 0 0 0 0 0 0 0 0 0 0 0 0 0 0 0
0 0 0 0 0 0 0 0 0 0 0 0 0 0 0 0 0 0 0 0 0 0 0 0 0 0 0 0 0 0 0 0 0 0 0 0 0 0 0 0 0 0 0
0 0 0 0 0 0 0 0 0 0 0 0 0 0 0 0 0 0 0 0 0 0 0 0 0 0 0 0 0 0 0 0 0 0 0 0 0 0 0 0 0 0 0
0 0 0 0 0 0 0 0 0 0 0 0 0 0 0 0 0 0 0 0 0 0 0 0 0 0 0 0 0 0 0 0 0 0 0 0 0 0 0 0 0 0 0
0 0 0 0 0 0 0 0 0 0 0 0 0 0 0 0 0 0 0 0 0 0 0 0 0 0 0 0 0 0 0 0 0 0 0 0 0 0 0 0 0 0 0
0 0 0 0 0 0 0 0 0 0 0 0 0 0 0 0 0 0 0 0 0 0 0 0 0 0 0 0 0 0 0 0 0 0 0 0 0 0 0 0 0 0 0
0 0 0 0 0 0 0 0 0 0 0 0 0 0 0 0 0 0 0 0 0 0 0 0 0 0 0 0 0 0 0 0 0 0 0 0 0 0 0 0 0 0 0
0 0 0 0 0 0 0 0 0 0 0 0 0 0 0 0 0 0 0 0 0 0 0 0 0 0 0 0 0 0 0 0 0 0 0 0 0 0 0 0 0 0 0
0 0 0 0 0 0 0 0 0 0 0 0 0 0 0 0 0 0 0 0 0 0 0 0 0 0 0 0 0 0 0 0 0 0 0 0 0 0 0 0 0 0 0
0 0 0 0 0 0 0 0 0 0 0 0 0 0 0 0 0 0 0 0 0 0 0 0 0 0 0 0 0 0 0 0 0 0 0 0 0 0 0 0 0 0 0
1 0 0 0 0 0 0 0 0 0 0 0 0 0 0 0 0 0 0 0 0 0 0 0 0 0 0 0 0 0 0 0 0 0 0 0 0 0 0 0 0 0 0
1 1 0 0 0 0 0 0 0 0 0 0 0 0 0 0 0 0 0 0 0 0 0 0 0 0 0 0 0 0 0 0 0 0 0 0 0 0 0 0 0 0 0
1 1 1 1 1 1 1 1 0 0 0 0 0 0 0 0 0 0 0 0 0 0 0 0 0 0 0 0 0 0 0 0 0 0 0 0 0 0 0 0 0 0 0
0 1 1 1 1 1 1 1 0 0 0 0 0 0 0 0 0 0 0 0 0 0 0 0 0 0 0 0 0 0 0 0 0 0 0 0 0 0 0 0 0 0 0
0 0 1 1 1 1 1 1 1 0 0 0 0 0 0 1 1 1 0 0 0 0 0 0 0 0 0 0 0 0 0 0 0 0 0 0 0 0 0 0 0 0 0
1 1 0 1 1 1 1 1 1 0 0 0 0 0 0 1 1 1 1 1 0 0 0 0 0 0 0 0 0 0 0 0 0 0 0 0 0 0 0 0 0 0 0
1 1 1 1 1 1 1 1 1 1 0 0 0 0 0 0 1 1 1 1 1 0 0 0 0 0 0 0 0 0 0 0 0 0 0 0 0 0 0 0 0 0 0
1 1 1 1 1 1 1 1 1 1 1 0 0 0 0 0 1 1 1 1 1 0 0 0 0 0 0 0 0 0 0 0 0 0 0 0 0 0 0 0 0 0 0
1 1 1 1 1 1 1 1 1 1 1 1 1 0 0 0 0 1 1 1 0 0 0 0 0 0 0 0 0 0 0 0 0 0 0 0 0 0 0 0 0 0 0
0 0 1 1 1 1 1 1 1 1 1 1 1 0 0 0 0 1 1 1 0 0 0 0 0 0 0 0 0 0 0 0 0 0 0 0 0 0 0 0 0 0 0
Wind_Speed
1 1 4 5 7 9 10 10 10 10 10 10 11 11 11 11 11 10 10 10 10 10 11 11 10 10 10 10 10 10 10 9 9 9 9 8 9 9 9 9 8 5 9
3 2 4 6 8 8 9 9 9 9 10 10 10 10 10 10 10 10 10 9 9 10 10 10 10 10 9 9 9 9 9 9 8 8 7 6 6 7 8 8 7 5 8
5 4 5 6 8 8 8 9 9 9 9 9 10 10 10 9 9 9 9 9 9 10 10 10 10 9 8 8 8 8 8 8 7 6 5 3 3 6 7 7 6 7 6
5 4 5 7 8 9 9 8 8 9 8 9 9 9 9 9 9 8 8 8 8 9 9 9 8 8 8 7 7 7 7 8 7 6 3 2 2 4 5 5 5 5 5
6 5 5 8 9 9 9 9 9 9 8 9 9 9 8 9 9 8 8 8 8 8 8 7 7 7 6 7 7 7 7 7 8 6 3 2 2 3 4 5 5 4 4
6 5 6 9 10 10 10 10 9 9 9 9 8 8 8 8 8 8 8 7 7 7 7 7 6 6 6 6 6 7 7 7 6 4 2 2 2 3 4 4 4 4 4
6 5 6 9 10 10 10 10 10 9 9 9 9 8 8 8 8 8 8 7 6 6 5 5 5 5 5 5 6 6 6 6 3 3 2 2 2 3 3 3 3 3 3
6 5 5 8 9 9 10 10 9 9 9 9 9 8 8 8 7 7 7 7 6 5 4 4 4 3 4 4 5 5 6 5 4 3 2 2 3 3 2 2 2 3 2
7 6 5 5 6 8 9 9 9 8 8 8 8 8 8 7 7 6 6 6 6 6 5 4 4 3 3 4 4 4 4 5 3 2 2 1 2 2 2 2 2 2 2
7 6 6 6 5 5 5 7 8 8 8 8 8 7 7 6 6 6 5 5 5 5 5 5 4 3 3 4 4 4 3 3 2 2 2 2 2 2 2 2 2 2 3
6 5 5 5 5 5 4 5 6 7 7 6 5 6 5 3 3 3 5 6 6 6 6 6 5 5 4 4 4 4 3 1 2 2 2 3 3 3 3 3 3 3 3
4 4 4 4 4 4 4 3 3 4 4 4 4 3 3 2 2 3 4 5 6 6 6 6 6 5 4 2 3 3 1 1 1 1 2 4 4 4 4 3 3 4 4
3 3 3 3 3 3 3 3 2 2 3 3 4 4 3 2 2 2 2 3 3 4 4 5 5 3 3 2 2 1 1 1 1 1 2 4 5 5 5 5 5 5 5
3 3 3 3 3 3 3 2 2 2 2 3 3 4 3 2 3 2 2 2 2 2 3 3 3 3 3 3 3 2 1 1 1 1 2 4 5 6 6 7 7 7 6
3 3 3 3 3 3 3 2 3 3 3 2 3 3 3 2 2 2 2 2 2 2 2 3 3 3 3 3 3 2 1 1 1 1 2 3 5 5 6 7 7 7 7
2 2 2 3 3 3 3 3 2 2 2 2 3 4 3 2 2 2 2 2 3 2 2 2 3 3 3 3 3 3 2 2 1 2 2 3 4 5 6 6 7 8 8
2 2 2 3 3 3 3 3 2 2 2 2 2 3 3 3 2 2 2 2 3 2 2 2 3 3 3 3 3 3 2 2 2 2 2 2 3 4 5 7 8 8 9
2 2 2 2 2 3 2 2 2 2 2 2 2 2 3 3 3 2 2 2 3 2 2 2 2 3 3 3 3 3 2 2 2 2 2 2 3 3 4 7 7 8 9
2 1 1 2 2 2 2 2 2 1 2 2 2 2 3 4 3 2 2 2 2 2 2 2 3 2 3 4 3 2 2 2 2 2 3 3 3 4 4 6 7 8 9
2 2 2 2 2 2 2 2 1 2 2 2 2 3 3 3 4 3 2 3 3 2 2 3 3 3 2 3 3 3 2 2 1 2 3 3 4 4 5 5 4 6 9
3 3 2 2 2 2 2 2 1 2 2 2 2 3 4 4 4 3 3 3 3 3 3 2 2 3 3 3 2 3 3 2 2 2 2 3 4 4 4 4 4 3 4
2 2 2 2 1 1 1 1 1 1 1 1 2 3 3 3 3 3 3 3 3 2 3 3 3 2 3 4 2 2 2 3 2 3 2 3 3 3 4 4 4 4 4
1 1 1 1 2 1 1 2 2 2 1 2 2 3 3 3 3 3 3 3 3 3 2 3 2 1 1 2 3 1 1 2 4 2 2 2 3 3 3 3 4 5 5
1 0 1 1 1 1 1 1 1 1 1 2 2 2 3 3 3 3 3 2 3 2 3 3 2 1 1 1 2 2 1 1 2 4 3 2 3 3 3 3 4 4 4
1 0 0 1 1 2 1 1 1 1 0 1 1 2 2 3 3 3 3 3 3 2 2 3 2 2 1 0 1 1 2 2 2 3 5 4 4 3 3 3 3 3 4
0 1 1 1 1 2 2 2 1 1 1 1 2 2 2 2 2 3 3 3 3 2 2 2 2 2 2 1 1 1 1 1 2 3 4 5 5 4 4 3 3 3 3
Wind_Direction
62 66 77 74 84 94 92 90 87 86 86 85 83 85 88 87 84 83 83 83 83 83 80 78 77 75 73 71 68 65 63 60 59 58 62 66 68 70 68 62 57 51 61
128 111 83 75 83 89 91 90 90 88 87 85 82 81 84 86 86 85 84 83 82 82 81 79 76 71 70 68 64 61 57 54 53 47 48 58 67 75 70 62 61 58 63
105 94 86 75 80 81 84 88 90 91 89 86 83 81 81 83 84 86 84 80 80 79 77 74 73 69 66 63 58 53 49 45 44 39 38 30 51 78 74 66 63 56 58
102 88 81 74 81 82 80 83 89 88 91 88 84 81 79 80 79 80 81 79 77 77 77 73 70 67 63 57 49 43 38 35 35 39 40 22 22 72 75 69 64 56 50
89 79 74 73 81 83 81 77 78 80 83 85 84 80 80 79 77 76 76 75 73 73 72 69 65 62 58 51 42 35 32 31 36 38 37 30 14 55 70 71 62 53 43
82 74 74 70 75 79 79 77 75 75 76 79 80 78 78 77 75 76 71 69 69 68 67 64 59 54 51 43 34 31 31 35 40 33 30 27 17 47 63 71 67 58 51
82 74 78 68 67 70 74 76 74 72 71 71 73 72 70 69 69 70 68 63 60 61 64 60 53 50 48 40 30 27 30 30 43 30 28 19 10 30 42 51 53 56 51
87 74 71 65 63 63 66 66 67 68 68 68 66 64 64 64 62 62 62 61 54 48 50 52 41 34 39 32 25 19 19 19 27 20 6 354 1 16 14 26 38 36 26
75 72 61 58 59 58 60 60 58 60 60 60 58 58 56 54 53 49 49 51 49 38 29 26 24 19 17 19 11 7 10 9 13 4 347 333 336 357 356 355 2 2 357
67 64 55 48 48 48 55 53 54 56 55 53 51 51 50 49 45 40 37 38 38 30 19 15 6 0 358 359 357 358 360 1 4 349 333 318 313 317 324 327 332 331 331
63 57 56 48 43 41 47 48 48 51 48 47 44 43 47 39 36 32 26 25 24 21 15 10 3 353 345 342 343 341 348 2 345 337 321 312 298 292 298 309 312 311 314
69 56 53 51 46 44 43 45 35 36 35 34 31 29 33 32 26 28 15 16 17 14 8 7 0 353 344 332 334 339 345 331 326 325 323 316 302 299 301 304 304 303 304
90 65 48 46 50 51 45 46 34 29 27 23 24 21 19 26 19 18 13 4 2 7 2 359 360 353 343 330 325 326 311 309 302 307 326 325 314 309 306 306 304 302 298
83 61 49 47 50 48 52 53 45 35 30 23 14 17 26 27 19 10 13 358 3 2 356 356 353 344 340 335 326 328 325 306 287 295 330 334 324 314 310 311 309 308 307
81 60 55 54 50 44 50 44 48 35 29 21 15 15 24 30 23 12 360 357 356 354 355 351 348 340 336 332 337 343 341 327 311 296 313 330 319 312 310 310 312 315 314
65 73 72 69 58 51 49 42 42 35 24 25 23 14 17 23 24 22 8 357 349 342 342 345 344 334 325 328 327 331 321 314 317 320 319 327 335 331 322 319 319 319 319
75 67 67 84 66 61 57 49 44 32 29 29 20 12 18 23 19 15 11 356 338 328 336 349 349 350 341 338 332 328 329 331 333 341 342 346 346 347 335 329 328 328 324
101 79 62 62 70 68 61 53 45 33 27 20 13 12 12 11 15 11 4 348 333 335 342 354 355 352 348 339 332 332 340 340 340 346 359 3 356 354 351 353 344 335 329
117 101 72 60 68 67 66 59 42 35 29 16 12 13 9 7 3 2 352 337 334 340 353 0 1 352 344 336 323 331 336 327 336 2 15 18 11 9 4 1 355 346 341
77 66 57 58 60 57 57 54 47 40 30 21 17 11 6 7 4 2 355 351 349 1 4 1 357 359 346 328 325 335 320 320 357 12 19 15 14 13 11 7 358 350 349
61 52 42 47 47 48 31 18 7 4 8 17 19 17 14 11 11 13 3 357 4 12 358 352 348 4 2 350 351 334 326 338 25 12 16 15 8 3 5 3 359 357 346
70 51 42 30 28 37 9 350 347 355 24 17 3 13 13 9 9 15 10 2 356 359 8 2 8 12 7 12 0 333 325 324 350 335 351 2 352 355 353 354 352 351 346
69 57 31 15 31 25 23 44 33 39 19 9 3 7 6 4 7 9 10 0 353 3 3 357 5 27 0 360 15 15 345 293 316 308 339 343 344 339 332 338 344 341 342
214 91 57 41 47 38 53 86 68 1 316 322 342 352 358 3 2 359 359 1 356 357 4 356 4 346 42 346 336 352 330 287 288 301 305 322 327 319 317 328 322 320 327
204 154 74 54 52 45 47 66 94 40 343 353 1 358 358 354 356 357 356 360 353 352 357 358 357 358 350 314 309 308 308 313 286 271 290 309 311 296 297 301 300 304 316
180 79 59 52 36 36 38 45 68 49 357 4 349 341 341 340 349 357 356 353 347 350 346 337 348 343 329 315 292 302 295 286 284 278 281 296 298 296 295 292 294 303 308